Satellite: ISS
Catalog number: 25544
Epoch time:      09018.53673810
Element set:      97
Inclination:      051.6434 deg
RA of node:       352.9819 deg
Eccentricity:    0.0007813
Arg of perigee:   279.1391 deg
Mean anomaly:     184.3598 deg
Mean motion:   15.70422260 rev/day
Decay rate:     1.1337e-04 rev/day^2
Epoch rev:           58241
Checksum:              307

Satellite: CO-58
Catalog number: 28895
Epoch time:      09015.68742708
Element set:    0211
Inclination:      098.0781 deg
RA of node:       270.4088 deg
Eccentricity:    0.0019025
Arg of perigee:   105.0981 deg
Mean anomaly:     255.2372 deg
Mean motion:   14.59732830 rev/day
Decay rate:       -4.6e-07 rev/day^2
Epoch rev:           17148
Checksum:              320

Satellite: FALCON
Catalog number: 30776
Epoch time:      09017.92635552
Element set:    0486
Inclination:      035.4348 deg
RA of node:       291.0045 deg
Eccentricity:    0.0001142
Arg of perigee:   018.0468 deg
Mean anomaly:     342.0289 deg
Mean motion:   15.03149576 rev/day
Decay rate:       3.31e-06 rev/day^2
Epoch rev:           10247
Checksum:              277

Satellite: MAST
Catalog number: 31126
Epoch time:      09018.64994876
Element set:     507
Inclination:      098.0109 deg
RA of node:       080.1461 deg
Eccentricity:    0.0095195
Arg of perigee:   024.5212 deg
Mean anomaly:     336.0460 deg
Mean motion:   14.53471985 rev/day
Decay rate:       -5.8e-07 rev/day^2
Epoch rev:            9331
Checksum:              297

Satellite: CAPE1
Catalog number: 31130
Epoch time:      09018.81614123
Element set:     506
Inclination:      098.0134 deg
RA of node:       078.8245 deg
Eccentricity:    0.0103451
Arg of perigee:   028.4494 deg
Mean anomaly:     332.2279 deg
Mean motion:   14.52025837 rev/day
Decay rate:      -1.26e-06 rev/day^2
Epoch rev:            9301
Checksum:              265

Satellite: COMPASS
Catalog number: 32787
Epoch time:      09018.37243664
Element set:     256
Inclination:      097.9641 deg
RA of node:       083.3277 deg
Eccentricity:    0.0016217
Arg of perigee:   155.5163 deg
Mean anomaly:     204.6826 deg
Mean motion:   14.81534701 rev/day
Decay rate:       2.37e-06 rev/day^2
Epoch rev:            3926
Checksum:              305

Satellite: AAUSAT2
Catalog number: 32788
Epoch time:      09017.87978082
Element set:    0262
Inclination:      097.9623 deg
RA of node:       082.8722 deg
Eccentricity:    0.0015765
Arg of perigee:   158.0150 deg
Mean anomaly:     202.1713 deg
Mean motion:   14.81651036 rev/day
Decay rate:       1.92e-06 rev/day^2
Epoch rev:           03919
Checksum:              309

Satellite: DO-64
Catalog number: 32789
Epoch time:      09017.89758837
Element set:     268
Inclination:      097.9678 deg
RA of node:       082.9708 deg
Eccentricity:    0.0016180
Arg of perigee:   156.7560 deg
Mean anomaly:     203.4382 deg
Mean motion:   14.81592137 rev/day
Decay rate:       4.70e-06 rev/day^2
Epoch rev:            3919
Checksum:              359

Satellite: CO-66
Catalog number: 32791
Epoch time:      09017.31794123
Element set:    0250
Inclination:      097.9664 deg
RA of node:       082.3069 deg
Eccentricity:    0.0016497
Arg of perigee:   157.1423 deg
Mean anomaly:     203.0524 deg
Mean motion:   14.81374794 rev/day
Decay rate:        5.7e-07 rev/day^2
Epoch rev:           03907
Checksum:              313

Satellite: RS-30
Catalog number: 32953
Epoch time:      09017.99597222
Element set:     210
Inclination:      082.5032 deg
RA of node:       350.0052 deg
Eccentricity:    0.0019406
Arg of perigee:   142.5467 deg
Mean anomaly:     217.6967 deg
Mean motion:   12.42999453 rev/day
Decay rate:        1.0e-07 rev/day^2
Epoch rev:            2973
Checksum:              293

/EX




_______________________________________________
Via the Keps mailing list courtesy of AMSAT-NA
http://amsat.org/mailman/listinfo/keps

--- ViaMAIL!/WC v1.60d
 * Origin: Chowdanet (401-724-4410) telnet://chowdanet.com  (1:323/120)